This demonstration page uses our WeatherBlox Daily Observations layout. Learn more.

Left ArrowRight Arrow

Hourly Observations for November 2, 2021

Temp ( °F °C ) Dew Point ( °F °C ) Humidity (%) Winds ( mph kmh ) Pressure ( in mb ) Visibility ( mi km ) Precip ( " mm )
12:51 am 00:51 Clear 51 10.6 31 -0.6 46 46 E 3 6 30.06 1018 10 16 0.00 0.00
1:51 am 01:51 Clear 47 8.3 30 -1.1 52 52 Calm 30.08 1019 10 16 0.00 0.00
2:51 am 02:51 Clear 48 8.9 31 -0.6 52 52 S 3 6 30.07 1018 10 16 0.00 0.00
3:51 am 03:51 Clear 47 8.3 30 -1.1 52 52 SE 3 6 30.06 1018 10 16 0.00 0.00
4:51 am 04:51 Clear 46 7.8 30 -1.1 54 54 SSE 3 6 30.07 1018 10 16 0.00 0.00
5:51 am 05:51 Clear 46 7.8 30 -1.1 54 54 SSE 6 9 30.09 1019 10 16 0.00 0.00
6:51 am 06:51 Sunny 45 7.2 30 -1.1 56 56 Calm 30.13 1020 10 16 0.00 0.00
7:51 am 07:51 Sunny 50 10 31 -0.6 48 48 SE 3 6 30.13 1020 10 16 0.00 0.00
8:51 am 08:51 Sunny 56 13.3 32 0 40 40 SSE 6 9 30.14 1021 10 16 0.00 0.00
9:51 am 09:51 Sunny 62 16.7 32 0 32 32 ESE 5 7 30.12 1020 10 16 0.00 0.00
10:51 am 10:51 Sunny 68 20 31 -0.6 25 25 ESE 6 9 30.11 1020 10 16 0.00 0.00
11:51 am 11:51 Sunny 71 21.7 31 -0.6 23 23 SE 3 6 30.07 1018 10 16 0.00 0.00
12:51 pm 12:51 Sunny 74 23.3 33 0.6 22 22 SW 3 6 30.03 1017 10 16 0.00 0.00
1:51 pm 13:51 Sunny 78 25.6 32 0 19 19 W 7 11 30.00 1016 10 16 0.00 0.00
2:51 pm 14:51 Sunny 77 25 31 -0.6 18 18 WNW 8 13 29.98 1015 10 16 0.00 0.00
3:51 pm 15:51 Sunny 75 23.9 32 0 21 21 W 9 15 29.99 1016 10 16 0.00 0.00
4:51 pm 16:51 Sunny 75 23.9 33 0.6 22 22 WSW 9 15 29.98 1015 10 16 0.00 0.00
5:51 pm 17:51 Clear 68 20 34 1.1 28 28 W 7 11 30.00 1016 10 16 0.00 0.00
6:51 pm 18:51 Clear 62 16.7 33 0.6 34 34 WNW 5 7 30.02 1017 10 16 0.00 0.00
7:51 pm 19:51 Clear 57 13.9 30 -1.1 36 36 NW 8 13 30.04 1017 10 16 0.00 0.00
8:51 pm 20:51 Clear 57 13.9 29 -1.7 34 34 NW 6 9 30.02 1017 10 16 0.00 0.00
9:51 pm 21:51 Clear 58 14.4 26 -3.3 29 29 WNW 6 9 30.02 1017 10 16 0.00 0.00
10:51 pm 22:51 Clear 51 10.6 26 -3.3 38 38 Calm 30.03 1017 10 16 0.00 0.00
11:51 pm 23:51 Clear 49 9.4 26 -3.3 41 41 SSE 5 7 30.04 1017 10 16 0.00 0.00

Powered by AerisWeather